Location: Bakov nad Jizerou
(50.4784°N, 14.9394°E)
Time: 19:06:47
(UTC+00:00)

Cosmos 1703 - Pass Details

Date: 28 October 2021
Orbit: 521 x 539 km, 82.5° (Epoch: 01 December)

Event Time Altitude Azimuth Distance (km) Brightness Sun altitude
Rises 04:27:35 0° 161° (SSE) 2,685 7.2 -12.7°
Reaches altitude 10° 04:29:55 10° 150° (SSE) 1,798 6.4 -12.4°
Maximum altitude 04:33:21 29° 90° (E) 1,018 5.6 -11.8°
Drops below altitude 10° 04:36:47 10° 30° (NNE) 1,806 6.3 -11.3°
Sets 04:39:08 0° 20° (NNE) 2,701 7.0 -10.9°
